Regional Weather Roundup
Issued by NWS

Home | Current Version | Previous Version | Graphics & Text | Print | Product List | Glossary On
Versions: 1 2 3 4 5 6 7 8 9 10 11 12 13 14 15 16 17 18 19 20 21 22 23 24 25 26 27 28 29 30 31 32 33 34 35 36 37 38 39 40 41 42 43 44 45 46 47 48 49 50
000
ASUS45 KPSR 230000
RWRAZ

ARIZONA HOURLY REGIONAL WEATHER ROUNDUP
NATIONAL WEATHER SERVICE PHOENIX AZ
500 PM MST FRI MAY 22 2015

NOTE: FAIR INDICATES FEW OR NO CLOUDS BELOW 12,000 FEET WITH NO
SIGNIFICANT WEATHER AND/OR OBSTRUCTIONS TO VISIBILITY.

AZZ001>003-036-230100-
NORTHWEST ARIZONA

CITY           SKY/WX    TMP DP  RH WIND       PRES   REMARKS
KINGMAN        LGT RAIN  57  45  64 S10       29.92R
6HR MIN TEMP:  56; 6HR MAX TEMP:  69; 6HR PCP:  0.10;

$$

AZZ004>008-015-016-018-230100-
NORTH CENTRAL ARIZONA

CITY           SKY/WX    TMP DP  RH WIND       PRES   REMARKS
WILLIAMS       CLOUDY    41  36  81 VRB5      30.08R
PRESCOTT       LGT RAIN  56  35  45 S16G30    29.96R
6HR MIN TEMP:  56; 6HR MAX TEMP:  63; 6HR PCP: TRACE;

FLAGSTAFF      NOT AVBL
PAYSON         PTSUNNY   61  30  31 SW8G17    29.99R
PAGE           PTSUNNY   62  34  35 SW13G21   29.89R
6HR MIN TEMP:  62; 6HR MAX TEMP:  74;

$$

AZZ009>014-017-230100-
NORTHEAST ARIZONA

CITY           SKY/WX    TMP DP  RH WIND       PRES   REMARKS
WINSLOW        NOT AVBL
SAINT JOHNS    SUNNY     70  16  12 SW31      29.89S
6HR MIN TEMP:  66; 6HR MAX TEMP:  75;

WINDOW ROCK    CLOUDY    63  18  17 SW13      29.95F
6HR MIN TEMP:  61; 6HR MAX TEMP:  67;

$$

AZZ023-230100-
GREATER PHOENIX AREA

CITY           SKY/WX    TMP DP  RH WIND       PRES   REMARKS
PHOENIX        MOSUNNY   78  36  21 W14G28    29.84S
6HR MIN TEMP:  78; 6HR MAX TEMP:  82;

GLENDALE       MOSUNNY   79  34  19 S14G23    29.87S
LUKE AFB       SUNNY     77  36  22 SW16G22   29.85S
6HR MIN TEMP:  74; 6HR MAX TEMP:  79; 6HR PCP: TRACE;

DEER VALLEY    SUNNY     76  33  21 SW15      29.86S
6HR MIN TEMP:  73; 6HR MAX TEMP:  78;

SCOTTSDALE     SUNNY     77  35  21 W9G23     29.88S
6HR MIN TEMP:  74; 6HR MAX TEMP:  78;

MESA-GATEWAY   MOSUNNY   77  41  27 W13G22    29.87F
CHANDLER       MOSUNNY   77  39  25 W12       29.85F
$$

AZZ027-028-230100-
SOUTHWEST MARICOPA COUNTY AND PINAL COUNTY

CITY           SKY/WX    TMP DP  RH WIND       PRES   REMARKS
CASA GRANDE    PTSUNNY   77  39  25 W16G22    29.85R
6HR MIN TEMP:  75; 6HR MAX TEMP:  81;

GILA BEND      FAIR      78  34  19 W20G25    29.86S
6HR MIN TEMP:  72; 6HR MAX TEMP:  80;

$$

AZZ503-504-507>509-230100-
SOUTHEAST ARIZONA

CITY           SKY/WX    TMP DP  RH WIND       PRES   REMARKS
TUCSON         SUNNY     79  23  12 SW21G31   29.92R
6HR MIN TEMP:  77; 6HR MAX TEMP:  83;

DAVIS-MONTHAN  SUNNY     78  26  14 W18G26    29.90R
6HR MIN TEMP:  76; 6HR MAX TEMP:  82;

RYAN FIELD       N/A     81  28  15 S16G28    29.90S
NOGALES        SUNNY     74  30  19 SW20G26   29.96R
6HR MIN TEMP:  73; 6HR MAX TEMP:  80;

SIERRA VISTA   SUNNY     74  22  14 W22G31    29.97S
6HR MIN TEMP:  73; 6HR MAX TEMP:  77;

SAFFORD        SUNNY     84  21  10 W17G35    29.81R
6HR MIN TEMP:  79; 6HR MAX TEMP:  87;

$$

AZZ020-021-025-026-031-230100-
SOUTHWEST ARIZONA

CITY           SKY/WX    TMP DP  RH WIND       PRES   REMARKS
YUMA           SUNNY     79  39  23 W17G24    29.88S
6HR MIN TEMP:  74; 6HR MAX TEMP:  81;

$$

CAZ031-033-041-043-047-048-061-230100-
SOUTHERN CALIFORNIA

CITY           SKY/WX    TMP DP  RH WIND       PRES   REMARKS
DOWNTOWN L.A.  CLOUDY    66  50  56 VRB5      30.01R
6HR MIN TEMP:  65; 6HR MAX TEMP:  69;

L.A. AIRPORT   PTSUNNY   63  54  72 SW15      30.02S
6HR MIN TEMP:  60; 6HR MAX TEMP:  65;

SAN DIEGO      PTSUNNY   66  51  58 W10       30.06R
6HR MIN TEMP:  66; 6HR MAX TEMP:  68;

BURBANK        CLOUDY    63  47  55 S8        30.00R
6HR MIN TEMP:  62; 6HR MAX TEMP:  66;

ONTARIO        CLOUDY    60  48  64 W8        30.02R
6HR MIN TEMP:  59; 6HR MAX TEMP:  63; 6HR PCP: TRACE;

RIVERSIDE      CLOUDY    62  48  60 W7        30.02S
6HR MIN TEMP:  61; 6HR MAX TEMP:  65;

PALM SPRINGS   MOSUNNY   76  42  29 NW15G26   29.88R
6HR MIN TEMP:  74; 6HR MAX TEMP:  80;

EL CENTRO NAS  MOSUNNY   76  41  28 W29G37    29.92R
6HR MIN TEMP:  73; 6HR MAX TEMP:  79;

IMPERIAL       SUNNY     76  43  30 W23G33    29.88S
6HR MIN TEMP:  73; 6HR MAX TEMP:  79;

BLYTHE         MOSUNNY   80  40  23 SW21      29.83R
6HR MIN TEMP:  74; 6HR MAX TEMP:  82;

$$

NVZ020-UTZ003-230100-
SOUTHERN NEVADA-UTAH

CITY           SKY/WX    TMP DP  RH WIND       PRES   REMARKS
LAS VEGAS      NOT AVBL
SALT LAKE CITY CLOUDY    62  39  42 SE3       29.86F
6HR MIN TEMP:  58; 6HR MAX TEMP:  64; 6HR PCP: TRACE;

$$

NMZ009-TXZ055-230100-
NEW MEXICO-WEST TEXAS

CITY           SKY/WX    TMP DP  RH WIND       PRES   REMARKS
ALBUQUERQUE    MOSUNNY   75  34  22 S29G40    29.92F
6HR MIN TEMP:  61; 6HR MAX TEMP:  75;

EL PASO        PTSUNNY   89  13   6 SW16G22   29.85F
6HR MIN TEMP:  74; 6HR MAX TEMP:  91;

$$


........................KEY........................
SKY/WX - SKY CONDITION/WEATHER
TMP    - TEMPERATURE IN FAHRENHEIT
DP     - DEW POINT IN FAHRENHEIT
RH     - RELATIVE HUMIDITY IN PERCENT
WIND   - DIRECTION AND SPEED IN MILES PER HOUR (MPH)
VRB    - VARIABLE WIND DIRECTION
PRES   - MEAN SEA LEVEL PRESSURE IN INCHES OF MERCURY
         F - FALLING PRESSURE   R - RISING PRESSURE
         S - STEADY PRESSURE
VSB    - VISIBILITY IN MILES
HX     - HEAT INDEX IN FAHRENHEIT
WCI    - WIND CHILL INDEX IN FAHRENHEIT
TC     - TEMPERATURE IN CELSIUS WHICH IS ALSO KNOWN AS
         TEMPERATURE IN CENTIGRADE
AFB    - AIR FORCE BASE
         LUKE AFB IS LUKE AIR FORCE BASE
         DAVIS-MONTHAN IS DAVIS-MONTHAN AIR FORCE BASE
NAS    - NAVAL AIR STATION
         EL CENTRO NAS IS EL CENTRO NAVAL AIR STATION
N/A    - NOT AVAILABLE




USA.gov is the U.S. government's official web portal to all federal, state and local government web resources and services.